Time,TemperatureF,DewpointF,PressureIn,WindDirection,WindDirectionDegrees,WindSpeedMPH,WindSpeedGustMPH,Humidity,HourlyPrecipIn,Conditions,Clouds,dailyrainin,SoftwareType,DateUTC
2013-12-30 00:22:00,18.0,-99.9,-100.00,North,-999,-999.0,-999.0,-999,0.00,,,-99.99,,2013-12-30 07:22:00,
2013-12-30 00:32:00,18.0,-99.9,-100.00,North,-999,-999.0,-999.0,-999,0.00,,,-99.99,,2013-12-30 07:32:00,
2013-12-30 00:42:00,18.0,-99.9,-100.00,North,-999,-999.0,-999.0,-999,0.00,,,-99.99,,2013-12-30 07:42:00,
2013-12-30 01:23:00,17.0,-99.9,-100.00,North,-999,-999.0,-999.0,-999,0.00,,,-99.99,,2013-12-30 08:23:00,
2013-12-30 01:32:00,17.0,-99.9,-100.00,North,-999,-999.0,-999.0,-999,0.00,,,-99.99,,2013-12-30 08:32:00,
2013-12-30 01:42:00,17.0,-99.9,-100.00,North,-999,-999.0,-999.0,-999,0.00,,,-99.99,,2013-12-30 08:42:00,
2013-12-30 02:22:00,17.0,-99.9,-100.00,North,-999,-999.0,-999.0,-999,0.00,,,-99.99,,2013-12-30 09:22:00,
2013-12-30 02:33:00,17.0,-99.9,-100.00,North,-999,-999.0,-999.0,-999,0.00,,,-99.99,,2013-12-30 09:33:00,
2013-12-30 02:43:00,17.0,-99.9,-100.00,North,-999,-999.0,-999.0,-999,0.00,,,-99.99,,2013-12-30 09:43:00,
2013-12-30 03:23:00,17.0,-99.9,-100.00,North,-999,-999.0,-999.0,-999,0.00,,,-99.99,,2013-12-30 10:23:00,
2013-12-30 03:34:00,17.0,-99.9,-100.00,North,-999,-999.0,-999.0,-999,0.00,,,-99.99,,2013-12-30 10:34:00,
2013-12-30 03:43:00,17.0,-99.9,-100.00,North,-999,-999.0,-999.0,-999,0.00,,,-99.99,,2013-12-30 10:43:00,
2013-12-30 04:22:00,17.0,-99.9,-100.00,North,-999,-999.0,-999.0,-999,0.00,,,-99.99,,2013-12-30 11:22:00,
2013-12-30 04:33:00,17.0,-99.9,-100.00,North,-999,-999.0,-999.0,-999,0.00,,,-99.99,,2013-12-30 11:33:00,
2013-12-30 04:43:00,17.0,-99.9,-100.00,North,-999,-999.0,-999.0,-999,0.00,,,-99.99,,2013-12-30 11:43:00,
2013-12-30 05:23:00,17.0,-99.9,-100.00,North,-999,-999.0,-999.0,-999,0.00,,,-99.99,,2013-12-30 12:23:00,
2013-12-30 05:33:00,17.0,-99.9,-100.00,North,-999,-999.0,-999.0,-999,0.00,,,-99.99,,2013-12-30 12:33:00,
2013-12-30 05:42:00,17.0,-99.9,-100.00,North,-999,-999.0,-999.0,-999,0.00,,,-99.99,,2013-12-30 12:42:00,
2013-12-30 06:22:00,17.0,-99.9,-100.00,North,-999,-999.0,-999.0,-999,0.00,,,-99.99,,2013-12-30 13:22:00,
2013-12-30 06:32:00,17.0,-99.9,-100.00,North,-999,-999.0,-999.0,-999,0.00,,,-99.99,,2013-12-30 13:32:00,
2013-12-30 06:42:00,17.0,-99.9,-100.00,North,-999,-999.0,-999.0,-999,0.00,,,-99.99,,2013-12-30 13:42:00,
2013-12-30 07:22:00,17.0,-99.9,-100.00,North,-999,-999.0,-999.0,-999,0.00,,,-99.99,,2013-12-30 14:22:00,
2013-12-30 07:32:00,17.0,-99.9,-100.00,North,-999,-999.0,-999.0,-999,0.00,,,-99.99,,2013-12-30 14:32:00,
2013-12-30 07:42:00,17.0,-99.9,-100.00,North,-999,-999.0,-999.0,-999,0.00,,,-99.99,,2013-12-30 14:42:00,
2013-12-30 08:22:00,17.0,-99.9,-100.00,North,-999,-999.0,-999.0,-999,0.00,,,-99.99,,2013-12-30 15:22:00,
2013-12-30 08:33:00,17.0,-99.9,-100.00,North,-999,-999.0,-999.0,-999,0.00,,,-99.99,,2013-12-30 15:33:00,
2013-12-30 08:44:00,17.0,-99.9,-100.00,North,-999,-999.0,-999.0,-999,0.00,,,-99.99,,2013-12-30 15:44:00,
2013-12-30 09:24:00,17.0,-99.9,-100.00,North,-999,-999.0,-999.0,-999,0.00,,,-99.99,,2013-12-30 16:24:00,
2013-12-30 09:33:00,17.0,-99.9,-100.00,North,-999,-999.0,-999.0,-999,0.00,,,-99.99,,2013-12-30 16:33:00,
2013-12-30 09:43:00,17.0,-99.9,-100.00,North,-999,-999.0,-999.0,-999,0.00,,,-99.99,,2013-12-30 16:43:00,
2013-12-30 10:22:00,20.0,-99.9,-100.00,North,-999,-999.0,-999.0,-999,0.00,,,0.01,,2013-12-30 17:22:00,
2013-12-30 10:33:00,20.0,-99.9,-100.00,North,-999,-999.0,-999.0,-999,0.00,,,0.01,,2013-12-30 17:33:00,
2013-12-30 10:43:00,20.0,-99.9,-100.00,North,-999,-999.0,-999.0,-999,0.00,,,0.01,,2013-12-30 17:43:00,
2013-12-30 11:22:00,23.0,-99.9,-100.00,North,-999,-999.0,-999.0,-999,0.00,,,0.00,,2013-12-30 18:22:00,
2013-12-30 11:32:00,23.0,-99.9,-100.00,North,-999,-999.0,-999.0,-999,0.00,,,0.00,,2013-12-30 18:32:00,
2013-12-30 11:43:00,23.0,-99.9,-100.00,North,-999,-999.0,-999.0,-999,0.00,,,0.00,,2013-12-30 18:43:00,
2013-12-30 12:23:00,25.0,-99.9,-100.00,North,-999,-999.0,-999.0,-999,0.00,,,0.01,,2013-12-30 19:23:00,
2013-12-30 12:32:00,25.0,-99.9,-100.00,North,-999,-999.0,-999.0,-999,0.00,,,0.01,,2013-12-30 19:32:00,
2013-12-30 12:42:00,25.0,-99.9,-100.00,North,-999,-999.0,-999.0,-999,0.00,,,0.01,,2013-12-30 19:42:00,
2013-12-30 13:22:00,28.0,-99.9,-100.00,North,-999,-999.0,-999.0,-999,-99.99,,,0.00,,2013-12-30 20:22:00,
2013-12-30 13:33:00,28.0,-99.9,-100.00,North,-999,-999.0,-999.0,-999,-99.99,,,0.00,,2013-12-30 20:33:00,
2013-12-30 13:42:00,28.0,-99.9,-100.00,North,-999,-999.0,-999.0,-999,-99.99,,,0.00,,2013-12-30 20:42:00,
2013-12-30 14:22:00,29.0,-99.9,-100.00,North,-999,-999.0,-999.0,-999,0.21,,,0.21,,2013-12-30 21:22:00,
2013-12-30 14:33:00,29.0,-99.9,-100.00,North,-999,-999.0,-999.0,-999,0.21,,,0.21,,2013-12-30 21:33:00,
2013-12-30 14:44:00,29.0,-99.9,-100.00,North,-999,-999.0,-999.0,-999,0.21,,,0.21,,2013-12-30 21:44:00,
2013-12-30 15:23:00,26.0,-99.9,-100.00,North,-999,-999.0,-999.0,-999,0.01,,,-99.99,,2013-12-30 22:23:00,
2013-12-30 15:33:00,26.0,-99.9,-100.00,North,-999,-999.0,-999.0,-999,0.01,,,-99.99,,2013-12-30 22:33:00,
2013-12-30 15:43:00,26.0,-99.9,-100.00,North,-999,-999.0,-999.0,-999,0.01,,,-99.99,,2013-12-30 22:43:00,
2013-12-30 16:22:00,24.0,-99.9,-100.00,North,-999,-999.0,-999.0,-999,0.00,,,0.21,,2013-12-30 23:22:00,
2013-12-30 16:33:00,24.0,-99.9,-100.00,North,-999,-999.0,-999.0,-999,0.00,,,0.21,,2013-12-30 23:33:00,
2013-12-30 16:42:00,24.0,-99.9,-100.00,North,-999,-999.0,-999.0,-999,0.00,,,0.21,,2013-12-30 23:42:00,
2013-12-30 17:22:00,22.0,-99.9,-100.00,North,-999,-999.0,-999.0,-999,0.00,,,0.21,,2013-12-31 00:22:00,
2013-12-30 17:32:00,22.0,-99.9,-100.00,North,-999,-999.0,-999.0,-999,0.00,,,0.21,,2013-12-31 00:32:00,
2013-12-30 17:42:00,22.0,-99.9,-100.00,North,-999,-999.0,-999.0,-999,0.00,,,0.21,,2013-12-31 00:42:00,
2013-12-30 18:22:00,20.0,-99.9,-100.00,North,-999,-999.0,-999.0,-999,0.00,,,0.21,,2013-12-31 01:22:00,
2013-12-30 18:32:00,20.0,-99.9,-100.00,North,-999,-999.0,-999.0,-999,0.00,,,0.21,,2013-12-31 01:32:00,
2013-12-30 18:42:00,20.0,-99.9,-100.00,North,-999,-999.0,-999.0,-999,0.00,,,0.21,,2013-12-31 01:42:00,
2013-12-30 19:22:00,20.0,-99.9,-100.00,North,-999,-999.0,-999.0,-999,0.00,,,0.21,,2013-12-31 02:22:00,
2013-12-30 19:32:00,20.0,-99.9,-100.00,North,-999,-999.0,-999.0,-999,0.00,,,0.21,,2013-12-31 02:32:00,
2013-12-30 19:42:00,20.0,-99.9,-100.00,North,-999,-999.0,-999.0,-999,0.00,,,0.21,,2013-12-31 02:42:00,
2013-12-30 20:22:00,19.0,-99.9,-100.00,North,-999,-999.0,-999.0,-999,0.01,,,0.22,,2013-12-31 03:22:00,
2013-12-30 20:33:00,19.0,-99.9,-100.00,North,-999,-999.0,-999.0,-999,0.01,,,0.22,,2013-12-31 03:33:00,
2013-12-30 20:43:00,19.0,-99.9,-100.00,North,-999,-999.0,-999.0,-999,0.01,,,0.22,,2013-12-31 03:43:00,
2013-12-30 21:24:00,18.0,-99.9,-100.00,North,-999,-999.0,-999.0,-999,-99.99,,,0.21,,2013-12-31 04:24:00,
2013-12-30 21:33:00,18.0,-99.9,-100.00,North,-999,-999.0,-999.0,-999,-99.99,,,0.21,,2013-12-31 04:33:00,
2013-12-30 21:43:00,18.0,-99.9,-100.00,North,-999,-999.0,-999.0,-999,-99.99,,,0.21,,2013-12-31 04:43:00,
2013-12-30 22:23:00,19.0,-99.9,-100.00,North,-999,-999.0,-999.0,-999,0.00,,,-99.99,,2013-12-31 05:23:00,
2013-12-30 22:33:00,19.0,-99.9,-100.00,North,-999,-999.0,-999.0,-999,0.00,,,-99.99,,2013-12-31 05:33:00,
2013-12-30 22:43:00,19.0,-99.9,-100.00,North,-999,-999.0,-999.0,-999,0.00,,,-99.99,,2013-12-31 05:43:00,
2013-12-30 23:23:00,20.0,-99.9,-100.00,North,-999,-999.0,-999.0,-999,0.00,,,0.21,,2013-12-31 06:23:00,
2013-12-30 23:33:00,20.0,-99.9,-100.00,North,-999,-999.0,-999.0,-999,0.00,,,0.21,,2013-12-31 06:33:00,
2013-12-30 23:43:00,20.0,-99.9,-100.00,North,-999,-999.0,-999.0,-999,0.00,,,0.21,,2013-12-31 06:43:00,